Погода в Головщине

Россия / Липецкая область     52°36′54″N   39°53′50″E
темп.,
°C
ветер,
м/с
пор.,
м/с
влажн.,
%
обл.,
%
осадки,
мм/ч
давл.,
гПа
погр.,
м
18 мая, вт
вт1800:00+19вюв616615 0.0 1009312
03:00+17вюв6145999 0.0 1009272
06:00+16вюв413671 0.0 1008231
09:00+22юв612511 0.0 1008455
12:00+26в712431 0.0 1007904
15:00+27вюв714525 0.0 10051635
18:00+24вюв612595 0.0 1005542
21:00+18ююз37815 0.0 1006171
19 мая, ср
ср1900:00+16ю35935 0.1 1007164
03:00+14ююв49945 0.1 1008253
06:00+15ююв49925 0.0 1009333
09:00+19юв45695 0.0 1008682
12:00+22юв455583 0.0 10081414
15:00+23юв575091 0.0 10071808
18:00+21юв5116470 0.1 1006969
21:00+15ююв3883100 0.1 1007291
20 мая, чт
чт2000:00+13ююв498893 0.8 1007406
03:00+11ююв5119398 0.8 1007369
06:00+12ююв611928 0.0 1008448
09:00+15ююв797783 0.1 1008994
12:00+16ююв6872100 0.1 10091025
15:00+19ю6763100 0.2 10091475
18:00+17юз577711 1.3 1010745
21:00+14ююз358896 1.6 1011120
21 мая, пт
пт2100:00+13юз479482 0.1 1011244
03:00+12юз379592 0.1 1012250
06:00+12зюз4793100 0.1 1013450
09:00+15зюз5676100 0.1 1014996
12:00+17зюз4559100 0.1 10151442
15:00+19з455496 0.1 10151648
18:00+18ссз3467100 0.0 1016372
21:00+14ссв2376100 0.0 101753
22 мая, сб
сб2200:00+13св3582100 0.0 1018109
03:00+12св3589100 0.5 1018138
06:00+12в4996100 4.3 1018336
09:00+15св6985100 4.6 1018390
12:00+18всв71075100 0.0 1017880
15:00+16ссв81386100 0.1 1016487
18:00+16св81385100 0.0 1015469
21:00+14св71290100 0.0 1014318